User: anonymous   Login
Location: Unspecified
(0.0000°N, 0.0000°E)
Time: 03:52:04
(UTC+00:00)
Language:

Oceansat - Orbit

View from above orbital plane
View from above orbital plane
View from above satellite
View from above satellite

Ground track
Ground track

The orbit data is extracted from the following two-line orbital elements,

1 25758U 99029C   18292.83269795  .00000012  00000-0  13462-4 0  9990
2 25758  98.1110   1.3272 0003268 171.1848 188.9406 14.52444162 27809
Epoch (UTC): 19 October 2018 19:59:05
Eccentricity: 0.0003268
inclination: 98.1110°
perigee height: 715 km
apogee height: 720 km
right ascension of ascending node: 1.3272°
argument of perigee: 171.1848°
revolutions per day: 14.52444162
mean anomaly at epoch: 188.9406°
orbit number at epoch: 2780

The dashed part of the orbit path shows where the satellite is in the earth's shadow,  

DLR